GW0751 Weather Reports


Display with metric or nautical units.
time (UTC)temp
F
wind
direction
speed
MPH
gust
MPH
rain 1hr
in
rain 24hr
in
rain mn
in
humidity
%
barometer
mb
20260905165120 72 113 0.0 0.0 0.01 0.00 0.01 59 1014.2
20260905164541 71 45 0.0 0.0 0.01 0.00 0.01 59 1014.2
20260905164025 72 68 0.0 0.0 0.01 0.00 0.01 59 1014.2
20260905163505 71 23 0.0 0.0 0.01 0.00 0.01 60 1014.2
20260905162946 71 0 0.0 0.0 0.01 0.00 0.01 59 1014.1
20260905162426 72 90 0.0 0.0 0.01 0.00 0.01 58 1014.1
20260905161910 74 113 0.0 0.0 0.01 0.00 0.01 57 1014.1
20260905160831 71 113 0.0 0.0 0.01 0.00 0.01 62 1014.1
20260905160311 73 90 0.0 0.0 0.01 0.00 0.01 60 1014.2
20260905155756 69 135 0.0 0.0 0.00 0.00 0.00 68 1014.2
20260905155236 69 158 0.0 0.0 0.00 0.00 0.00 68 1014.1
20260905154716 68 225 0.0 0.0 0.00 0.00 0.00 71 1014.1
20260905153655 66 113 0.0 0.0 0.00 0.00 0.00 73 1014.0
20260905153140 65 68 0.0 0.0 0.00 0.00 0.00 75 1014.0
20260905152620 64 135 0.0 0.0 0.00 0.00 0.00 81 1014.0
20260905152041 63 90 0.0 0.0 0.00 0.00 0.00 84 1014.0
20260905151526 62 45 0.0 0.0 0.00 0.00 0.00 86 1013.9
20260905151005 60 90 0.0 0.0 0.00 0.00 0.00 97 1013.9
20260905150446 60 68 0.0 0.0 0.00 0.00 0.00 97 1013.7
20260905145926 60 45 0.0 0.0 0.00 0.00 0.00 97 1013.7
20260905145410 57 23 0.0 0.0 0.00 0.00 0.00 97 1013.7
20260905144851 55 225 0.0 0.0 0.00 0.00 0.00 97 1013.7
20260905144330 54 225 0.0 0.0 0.00 0.00 0.00 97 1013.7
20260905143811 53 248 0.0 0.0 0.00 0.00 0.00 97 1013.8
20260905143255 52 225 0.0 0.0 0.00 0.00 0.00 97 1013.8
20260905142735 51 248 0.0 0.0 0.00 0.00 0.00 97 1013.7
20260905142216 50 225 0.0 0.0 0.00 0.00 0.00 97 1013.7
20260905141656 49 248 0.0 0.0 0.00 0.00 0.00 97 1013.6
20260905141121 48 248 0.0 0.0 0.00 0.00 0.00 97 1013.6
20260905140026 48 225 0.0 0.0 0.00 0.00 0.00 97 1013.6
20260905135505 48 225 0.0 0.0 0.00 0.00 0.00 97 1013.6
20260905134945 48 225 0.0 0.0 0.00 0.00 0.00 97 1013.6
20260905133411 48 225 0.0 0.0 0.00 0.00 0.00 97 1013.4
20260905132850 48 225 0.0 0.0 0.00 0.00 0.00 97 1013.4
20260905131831 48 225 0.0 0.0 0.00 0.00 0.00 97 1013.3
20260905131310 48 225 0.0 0.0 0.00 0.00 0.00 97 1013.3
20260905130811 48 225 0.0 0.0 0.00 0.00 0.00 97 1013.3
20260905130255 48 248 0.0 0.0 0.00 0.00 0.00 97 1013.3
20260905124656 48 225 0.0 0.0 0.00 0.00 0.00 97 1013.1
20260905124140 48 225 0.0 0.0 0.00 0.00 0.00 97 1013.1
20260905123621 49 248 0.0 0.0 0.00 0.00 0.00 96 1013.1
20260905122526 49 248 0.0 0.0 0.00 0.00 0.00 96 1013.3
20260905122006 49 248 0.0 0.0 0.00 0.00 0.00 96 1013.3
20260905121446 49 225 0.0 0.0 0.00 0.00 0.00 96 1013.3
20260905120411 49 225 0.0 0.0 0.00 0.00 0.00 96 1013.4
20260905115851 49 248 0.0 0.0 0.00 0.00 0.00 96 1013.4
20260905114811 49 248 0.0 0.0 0.00 0.00 0.00 96 1013.4
20260905114256 49 248 0.0 0.0 0.00 0.00 0.00 96 1013.4
20260905112656 49 225 0.0 0.0 0.00 0.00 0.00 96 1013.4
20260905111041 49 248 0.0 0.0 0.00 0.00 0.00 96 1013.5
20260905110526 49 225 0.0 0.0 0.00 0.00 0.00 96 1013.5
20260905110006 49 225 0.0 0.0 0.00 0.00 0.00 96 1013.5
20260905105446 49 225 0.0 0.0 0.00 0.00 0.00 96 1013.5
20260905104926 49 225 0.0 0.0 0.00 0.00 0.00 96 1013.5
20260905104411 49 225 0.0 0.0 0.00 0.00 0.00 96 1013.5
20260905103851 49 225 0.0 0.0 0.00 0.00 0.00 96 1013.5
20260905103331 49 225 0.0 0.0 0.00 0.00 0.00 96 1013.5
20260905102811 50 225 0.0 0.0 0.00 0.00 0.00 96 1013.4
20260905100656 50 248 0.0 0.0 0.00 0.00 0.00 96 1013.4
20260905100141 50 248 0.0 0.0 0.00 0.00 0.00 96 1013.5
20260905095621 50 225 0.0 0.0 0.00 0.00 0.00 96 1013.5
20260905095041 50 248 0.0 0.0 0.00 0.00 0.00 96 1013.6
20260905094526 50 248 0.0 0.0 0.00 0.00 0.00 96 1013.6
20260905094006 50 248 0.0 0.0 0.00 0.00 0.00 96 1013.7
20260905093446 50 248 0.0 0.0 0.00 0.00 0.00 96 1013.7
20260905092926 50 248 0.0 0.0 0.00 0.00 0.00 96 1013.7
20260905091406 50 248 0.0 0.0 0.00 0.00 0.00 96 1013.7
20260905090851 50 248 0.0 0.0 0.00 0.00 0.00 96 1013.7
20260905090331 51 225 0.0 0.0 0.00 0.00 0.00 96 1013.8
20260905085811 51 225 0.0 0.0 0.00 0.00 0.00 96 1013.8
20260905085251 51 248 0.0 0.0 0.00 0.00 0.00 96 1013.9
20260905084751 51 248 0.0 0.0 0.00 0.00 0.00 96 1013.9
20260905084236 51 248 0.0 0.0 0.00 0.00 0.00 96 1013.9
20260905083716 51 225 0.0 0.0 0.00 0.00 0.00 96 1013.8
20260905083156 51 248 0.0 0.0 0.00 0.00 0.00 96 1013.8
20260905081541 51 225 0.0 0.0 0.00 0.00 0.00 95 1013.8
20260905081021 51 248 0.0 0.0 0.00 0.00 0.00 95 1013.8
20260905080506 51 248 0.0 0.0 0.00 0.00 0.00 95 1013.8
20260905075426 51 225 0.0 0.0 0.00 0.00 0.00 95 1013.8
20260905074352 51 225 0.0 0.0 0.00 0.00 0.00 95 1013.9
20260905073831 51 225 0.0 0.0 0.00 0.00 0.00 95 1013.9
20260905073311 51 225 0.0 0.0 0.00 0.00 0.00 95 1013.9
20260905072751 51 225 0.0 0.0 0.00 0.00 0.00 95 1013.9
20260905072236 51 225 0.0 0.0 0.00 0.00 0.00 95 1013.9
20260905071716 51 225 0.0 0.0 0.00 0.00 0.00 95 1013.8
20260905071216 51 248 0.0 0.0 0.00 0.00 0.00 94 1013.8
20260905070656 51 248 0.0 0.0 0.00 0.00 0.00 94 1013.8
20260905070137 52 225 0.0 0.0 0.00 0.00 0.00 94 1013.8
20260905065636 52 225 0.0 0.0 0.00 0.00 0.02 94 1013.8
20260905064621 52 225 0.0 0.0 0.00 0.00 0.02 94 1013.8
20260905064042 52 225 0.0 0.0 0.00 0.00 0.02 94 1013.7
20260905063522 52 225 0.0 0.0 0.00 0.00 0.02 94 1013.7
20260905063021 52 225 0.0 0.0 0.00 0.00 0.02 94 1013.7
20260905062521 53 203 0.0 0.0 0.00 0.00 0.02 94 1013.7
20260905061447 53 248 0.0 0.0 0.00 0.00 0.02 94 1013.7
20260905060946 53 248 0.0 0.0 0.00 0.00 0.02 94 1013.7
20260905060426 53 248 0.0 0.0 0.00 0.00 0.02 93 1013.8
20260905055926 53 248 0.0 0.0 0.00 0.00 0.02 93 1013.8
20260905055406 53 248 0.0 0.0 0.00 0.00 0.02 93 1013.9
20260905054332 53 225 0.0 0.0 0.00 0.00 0.02 93 1013.9
20260905053251 53 248 0.0 0.0 0.00 0.00 0.02 92 1013.9
20260905052737 54 248 0.0 0.0 0.00 0.00 0.02 92 1014.0
20260905052216 54 248 0.0 0.0 0.00 0.00 0.02 91 1014.0
20260905051656 54 225 0.0 0.0 0.00 0.00 0.02 91 1014.0
20260905050621 55 225 0.0 0.0 0.00 0.00 0.02 89 1014.1
20260905045541 55 225 0.0 0.0 0.00 0.00 0.02 87 1014.1
20260905045021 56 90 0.0 0.0 0.00 0.00 0.02 87 1014.0
20260905044506 56 225 0.0 0.0 0.00 0.00 0.02 87 1014.0
20260905043946 56 203 0.0 0.0 0.00 0.00 0.02 87 1013.9
20260905043426 56 203 2.0 2.0 0.00 0.00 0.02 86 1013.9
20260905042906 56 248 1.0 1.0 0.00 0.00 0.02 86 1013.7
20260905042351 56 225 2.0 2.0 0.00 0.00 0.02 86 1013.7
20260905041832 56 225 2.0 2.0 0.00 0.00 0.02 86 1013.7
20260905041311 56 225 2.0 2.0 0.00 0.00 0.02 86 1013.7
20260905040751 56 248 0.0 0.0 0.00 0.00 0.02 86 1013.7
20260905040237 57 293 0.0 0.0 0.00 0.00 0.02 84 1013.5
20260905035716 57 225 0.0 0.0 0.00 0.00 0.02 84 1013.5
20260905035156 57 113 1.0 1.0 0.00 0.00 0.02 84 1013.4
20260905034637 57 203 2.0 2.0 0.00 0.00 0.02 84 1013.4
20260905034121 57 225 3.0 3.0 0.00 0.00 0.02 84 1013.1
20260905033601 57 203 2.0 2.0 0.00 0.00 0.02 84 1013.1
20260905033042 57 225 3.0 3.0 0.00 0.00 0.02 83 1013.1
20260905032007 58 248 4.0 4.0 0.00 0.00 0.02 82 1013.1
20260905030927 58 270 3.0 3.0 0.00 0.00 0.02 81 1013.1
20260905030406 58 225 4.0 4.0 0.00 0.00 0.02 80 1013.1
20260905025852 58 225 3.0 3.0 0.00 0.00 0.02 80 1013.1
20260905025331 59 270 4.0 4.0 0.00 0.00 0.02 79 1013.1
20260905024811 59 203 3.0 3.0 0.00 0.00 0.02 78 1013.1
20260905024251 59 203 3.0 3.0 0.00 0.00 0.02 77 1013.1
20260905023237 60 293 3.0 3.0 0.00 0.00 0.02 76 1013.1
20260905022156 60 248 2.0 2.0 0.00 0.00 0.02 74 1013.1
20260905021636 61 225 4.0 4.0 0.00 0.00 0.02 73 1013.1
20260905021122 61 248 2.0 2.0 0.00 0.00 0.02 73 1013.1
20260905020602 61 293 4.0 4.0 0.00 0.00 0.02 72 1013.1
20260905015542 62 225 4.0 4.0 0.00 0.00 0.02 70 1013.1
20260905015042 62 270 4.0 4.0 0.00 0.00 0.02 69 1013.1
20260905014522 63 203 4.0 4.0 0.00 0.00 0.02 68 1013.1
20260905014006 63 203 4.0 4.0 0.00 0.00 0.02 66 1013.1
20260905013447 63 180 5.0 5.0 0.00 0.00 0.02 66 1013.1
20260905012926 63 225 5.0 5.0 0.00 0.00 0.02 65 1013.1
20260905012406 64 270 3.0 3.0 0.00 0.00 0.02 65 1013.1
20260905011852 64 338 5.0 5.0 0.00 0.00 0.02 65 1013.1
20260905011351 64 45 5.0 5.0 0.00 0.00 0.02 64 1013.1
20260905010832 65 203 7.0 7.0 0.00 0.00 0.02 63 1013.1
20260905010312 66 270 5.0 5.0 0.00 0.00 0.02 61 1013.1
20260905005237 68 270 4.0 4.0 0.00 0.00 0.02 57 1013.1
20260905003636 73 270 5.0 5.0 0.00 0.00 0.02 55 1013.1
20260905003116 73 225 5.0 5.0 0.00 0.00 0.02 55 1013.1
20260905002602 72 225 4.0 4.0 0.00 0.00 0.02 55 1013.1
20260905002041 72 270 6.0 6.0 0.00 0.00 0.02 55 1013.1
20260905001542 72 225 5.0 5.0 0.00 0.00 0.02 54 1013.1
20260905001022 73 225 7.0 7.0 0.00 0.00 0.02 54 1013.1
20260905000502 73 203 5.0 5.0 0.00 0.00 0.02 55 1013.1
20260904235946 73 248 6.0 6.0 0.00 0.00 0.02 54 1013.1
20260904235427 73 293 4.0 4.0 0.00 0.00 0.02 55 1013.1
20260904234907 73 270 6.0 6.0 0.00 0.00 0.02 54 1013.3
20260904234347 73 248 6.0 6.0 0.00 0.00 0.02 54 1013.3
20260904233832 74 203 4.0 4.0 0.00 0.00 0.02 54 1013.1
20260904233232 74 203 5.0 5.0 0.00 0.00 0.02 54 1013.1
20260904232717 73 270 7.0 7.0 0.00 0.00 0.02 53 1013.3
20260904231637 75 225 6.0 6.0 0.00 0.00 0.02 52 1013.3
20260904231041 74 293 4.0 4.0 0.00 0.00 0.02 53 1013.3
20260904230522 74 225 6.0 6.0 0.00 0.00 0.02 53 1013.3
20260904225847 75 180 5.0 5.0 0.00 0.00 0.02 53 1013.3
20260904225327 75 203 5.0 5.0 0.00 0.00 0.02 52 1013.3
20260904224812 75 248 8.0 8.0 0.00 0.00 0.02 52 1013.3
20260904223732 76 225 5.0 5.0 0.00 0.00 0.02 51 1013.4
20260904223212 77 315 4.0 4.0 0.00 0.00 0.02 50 1013.4
20260904222657 76 225 6.0 6.0 0.00 0.00 0.02 49 1013.6
20260904222137 77 225 4.0 4.0 0.00 0.00 0.02 50 1013.6
20260904221617 77 45 3.0 3.0 0.00 0.00 0.02 52 1013.5
20260904221057 78 248 7.0 7.0 0.00 0.00 0.02 49 1013.5
20260904220022 76 203 6.0 6.0 0.00 0.00 0.02 50 1013.6
20260904215442 76 203 6.0 6.0 0.00 0.00 0.02 51 1013.6
20260904214922 76 293 6.0 6.0 0.00 0.00 0.02 51 1013.6
20260904214252 75 225 5.0 5.0 0.00 0.00 0.02 53 1013.6
20260904213732 76 248 5.0 5.0 0.00 0.00 0.02 53 1013.6
20260904213212 75 203 5.0 5.0 0.00 0.00 0.02 53 1013.6
20260904212407 75 248 8.0 8.0 0.00 0.00 0.02 52 1013.6
20260904211847 76 225 6.0 6.0 0.00 0.00 0.02 51 1013.6
20260904211327 76 225 4.0 4.0 0.00 0.00 0.02 52 1013.6
20260904210807 75 270 6.0 6.0 0.00 0.00 0.02 52 1013.6
20260904210252 75 270 4.0 4.0 0.00 0.00 0.02 53 1013.7
20260904205752 75 225 6.0 6.0 0.00 0.00 0.02 51 1013.7
20260904205232 75 315 5.0 5.0 0.00 0.00 0.02 51 1013.6
20260904204712 75 248 6.0 6.0 0.00 0.00 0.02 51 1013.6
20260904204152 75 248 6.0 6.0 0.00 0.00 0.02 52 1013.5
20260904203617 75 248 7.0 7.0 0.00 0.00 0.02 52 1013.5
20260904203057 76 180 5.0 5.0 0.00 0.00 0.02 51 1013.5
20260904202537 77 180 4.0 4.0 0.00 0.00 0.02 52 1013.5
20260904201502 75 225 4.0 4.0 0.00 0.00 0.02 54 1013.5
20260904200422 75 203 3.0 3.0 0.00 0.00 0.02 55 1013.6
20260904195347 74 270 5.0 5.0 0.00 0.00 0.02 55 1013.5
20260904194827 75 90 5.0 5.0 0.00 0.00 0.02 55 1013.5
20260904194307 74 68 5.0 5.0 0.00 0.00 0.02 56 1013.5
20260904193752 75 158 4.0 4.0 0.00 0.00 0.02 54 1013.6
20260904193247 73 293 3.0 3.0 0.00 0.00 0.02 56 1013.6
20260904192212 76 225 4.0 4.0 0.00 0.00 0.02 54 1013.5
20260904191712 75 203 3.0 3.0 0.00 0.00 0.02 53 1013.7
20260904191152 77 135 4.0 4.0 0.00 0.00 0.02 55 1013.7
20260904190117 73 180 3.0 3.0 0.00 0.00 0.02 58 1013.7
20260904185037 70 90 3.0 3.0 0.00 0.00 0.02 61 1013.8
20260904184517 70 225 3.0 3.0 0.00 0.00 0.02 61 1013.8
20260904183442 72 113 3.0 3.0 0.00 0.00 0.02 58 1013.6
20260904182922 74 158 3.0 3.0 0.00 0.00 0.02 56 1013.7
20260904182402 75 113 5.0 5.0 0.00 0.00 0.02 56 1013.7
20260904181847 75 135 3.0 3.0 0.00 0.00 0.02 52 1013.7
20260904181327 77 90 2.0 2.0 0.00 0.00 0.02 54 1013.7
20260904180807 77 45 4.0 4.0 0.00 0.00 0.02 55 1013.7
20260904180247 77 113 3.0 3.0 0.00 0.00 0.02 53 1013.8
20260904175732 74 338 2.0 2.0 0.00 0.00 0.02 57 1013.8
20260904175212 73 180 3.0 3.0 0.00 0.00 0.02 58 1013.7
20260904174652 74 45 4.0 4.0 0.00 0.00 0.02 58 1013.7
20260904174132 73 45 1.0 1.0 0.00 0.00 0.02 58 1013.7
20260904173617 72 113 2.0 2.0 0.00 0.00 0.02 61 1013.7
20260904173057 71 90 4.0 4.0 0.00 0.00 0.02 60 1013.7
20260904172537 71 113 3.0 3.0 0.00 0.00 0.02 59 1013.5
20260904172017 71 45 4.0 4.0 0.00 0.00 0.02 60 1013.5
20260904171502 72 68 3.0 3.0 0.00 0.00 0.02 60 1013.5
20260904170942 73 68 4.0 4.0 0.00 0.00 0.02 59 1013.5
20260904170423 72 248 4.0 4.0 0.00 0.00 0.02 59 1013.5
20260904165902 73 45 3.0 3.0 0.00 0.00 0.02 60 1013.5